Voltar ao catálogo

STARLINK-38052

AtivoComunicaçõesVLEO
NORAD 100016·PAYLOAD·🇺🇸 United States

Lançado Jul 14, 2026 de Vandenberg Space Force Base

Loading…

Próximas Passagens (próximas 24 horas)

TLE

AtualizadoSource: Space-Track

Época: Sep 14, 2026, 04:45 UTC

1 A0016U 26160R   26257.19822089  .00183364  00000-0  15052-2 0  9993
2 A0016  70.0023 212.5850 0007515 316.6964  43.3640 15.69711932 11003

Acompanhe STARLINK-38052 em tempo real com AllMySat

Download on the App Store